Regional Weather Roundup
Issued by NWS

Home | Current Version | Previous Version | Text Only | Print | Product List | Glossary Off
Versions: 1 2 3 4 5 6 7 8 9 10 11 12 13 14 15 16 17 18 19 20 21 22 23 24 25 26 27 28

000
ASUS45 KCYS 252010
RWRWY

WYOMING REGIONAL WEATHER ROUNDUP
NATIONAL WEATHER SERVICE CHEYENNE WY
100 PM MST SAT FEB 25 2017

NOTE:  "FAIR" INDICATES FEW OR NO CLOUDS BELOW 12,000 FEET
WITH NO SIGNIFICANT WEATHER AND/OR OBSTRUCTIONS TO VISIBILITY.

WYZ001-252100-
YELLOWSTONE NATIONAL PARK

CITY           SKY/WX    TMP DP  RH WIND       PRES   REMARKS
LK YELLOWSTONE   N/A     12   1  61 VRB6G22   29.75F WCI   3
W YELLOWSTONE  NOT AVBL

$$
WYZ002>013-054>058-071-098>099-252100-
NORTHERN WYOMING

CITY           SKY/WX    TMP DP  RH WIND       PRES   REMARKS
JACKSON        PTSUNNY   18  12  79 S17       29.85F WCI   2
CODY           FAIR      29   4  34 W21G30    29.76F WCI  16
GREYBULL       PTSUNNY   30  17  58 S13       29.80F WCI  20
WORLAND        FAIR      27  15  61 S5        29.81F WCI  22
SHERIDAN       PTSUNNY   29  15  56 MISG      29.77F
BUFFALO        PTSUNNY   25  16  68 S6        29.74F WCI  18
GILLETTE       CLOUDY    27  18  69 SW12      29.76F WCI  17
HULETT         LGT SNOW  28  21  74 W6        29.77F WCI  22
NEWCASTLE      LGT SNOW  25  19  80 SW7       29.83F WCI  17

$$
WYZ014>020-022>026-101>103-252100-
CENTRAL WYOMING

CITY           SKY/WX    TMP DP  RH WIND       PRES   REMARKS
BIG PINEY      LGT SNOW   8   1  73 NE3       29.88F
PINEDALE       FAIR      12   0  57 CALM      29.87F
DUBOIS         MOCLDY    18   1  49 NW22G35   29.71F WCI   0
LANDER         FAIR      15   3  59 E5        29.80F WCI   8
RIVERTON       FAIR      16   6  65 S12       29.81F WCI   3
CASPER         FAIR      20   8  60 W21G33    29.81F WCI   4
DOUGLAS        FAIR      22  10  60 W16       29.82F WCI   8

$$
WYZ021-027>030-104>119-252100-
SOUTHERN WYOMING

CITY           SKY/WX    TMP DP  RH WIND       PRES   REMARKS
EVANSTON       PTSUNNY   18   8  65 W22       29.91F WCI   1
FORT BRIDGER   FAIR      20  11  67 W23G31    29.93F WCI   3
ROCK SPRINGS   FAIR      17   7  64 W20       29.90F WCI   1
DIXON            N/A     22  10  57 W14G21    29.96F WCI  10
RAWLINS        CLOUDY    17   7  64 W31G43    29.82F HAZE    WCI  -3
SARATOGA       MOCLDY    19   9  63 MISG      29.86F HAZE
LARAMIE        FAIR      18   2  49 W13       29.77F WCI   5
CHEYENNE       FAIR      24   8  50 W28G37    29.79F WCI   7
TORRINGTON     FAIR      25   8  48 W12       29.87F WCI  14
PINE BLUFFS    FAIR      28   9  43 W17       29.86F WCI  16

$$




USA.gov is the U.S. government's official web portal to all federal, state and local government web resources and services.